#timestamp,LO_Frequency,Hit,StdDev 
1581775215.3,286047004.0,N
1581775235.1,286047002.8,N
1581775255.9,286047002.5,N
1581775275.7,286047000.3,N
1581775295.5,286047002.3,N
1581775315.4,286047000.6,N
1581775335.2,286047000.1,N
1581775355.1,286047000.3,N
1581775356.0,286047000.3,N
1581775375.8,286047000.3,N
1581775395.6,286046999.7,N
1581775415.5,286046999.9,N
1581775435.3,286047001.0,N
1581775455.1,286047000.2,N
1581775475.9,286047001.9,N
1581775495.7,286047003.8,N
1581775515.6,286047003.9,N
1581775535.4,286047004.4,N
1581775555.2,286047004.4,N
1581775575.1,286047002.1,N
1581775576.0,286047002.1,N
1581775595.8,286047001.7,N
1581775615.7,286047001.5,N
1581775635.5,286047002.6,N
1581775655.3,286047004.4,N
1581775675.2,286047001.8,N
1581775695.0,286047004.3,N
1581775695.9,286047004.3,N
1581775715.8,286047003.6,N
1581775735.6,286047003.5,N
1581775755.4,286047005.9,Y
1581775775.3,286047002.6,P
1581775795.1,286046999.7,N
1581775815.8,286047002.0,N
1581775835.7,286047002.3,N
1581775855.5,286047002.4,N
1581775875.4,286046999.9,N
1581775895.2,286047002.6,N
1581775915.0,286047002.5,N
1581775915.9,286047002.5,N
1581775935.8,286047000.2,N
1581775955.6,286046998.8,N
1581775975.5,286046999.0,N
1581775995.3,286047001.0,N
1581776015.1,286047000.4,N
1581776035.9,286046999.8,N
1581776055.7,286047001.8,N
1581776075.6,286047001.6,N
1581776095.4,286047002.3,N
1581776115.2,286047001.8,N
1581776135.1,286047002.7,N
1581776136.0,286047002.7,N
1581776155.8,286047002.4,N
1581776175.6,286047002.5,N
1581776195.5,286047001.9,N
1581776215.3,286047002.6,N
1581776235.2,286047003.9,Y
1581776285.9,286047002.6,E
1581776295.9,286046999.8,N
1581776315.7,286047001.2,P
1581776335.5,286046998.6,N
1581776355.4,286046998.9,N
1581776375.2,286046998.3,N
1581776395.0,286046999.3,N
1581776395.9,286046999.3,N
1581776415.8,286046996.5,Y
1581776435.6,286046997.0,P
1581776455.5,286046999.6,N
1581776475.3,286046997.6,N
1581776495.1,286046997.5,N
1581776515.9,286046997.7,N
1581776535.7,286046996.6,Y
1581776555.6,286047002.3,P
1581776575.4,286047001.1,N
1581776595.2,286047001.1,N
1581776615.1,286047001.2,N
1581776616.0,286047001.2,N
1581776635.8,286047004.0,Y
1581776655.6,286047001.5,P
1581776675.5,286046999.8,N
1581776695.3,286047001.3,N
1581776715.2,286047001.5,N
1581776735.9,286047002.7,Y
1581776755.7,286046999.8,P
1581776775.6,286047002.8,P
1581776795.4,286047000.0,N
1581776815.3,286047002.4,N
1581776835.1,286047002.5,N
1581776836.0,286047002.5,N
1581776855.8,286047001.9,N
1581776875.7,286047000.6,N
1581776895.5,286046999.8,N
1581776915.3,286047000.0,N
1581776935.2,286047001.0,N
1581776955.0,286047001.3,N
1581776955.9,286047001.3,N
1581776975.8,286047003.4,Y
1581776995.6,286047003.2,P
1581777015.4,286047001.4,N
1581777035.3,286047003.8,P
1581777055.1,286047004.4,Y
1581777075.9,286046998.5,P
1581777095.7,286046998.3,N
1581777115.5,286046997.7,N
1581777135.4,286046997.3,N
1581777155.2,286046993.4,Y
1581777175.0,286046997.6,P
1581777175.9,286046997.6,P
1581777195.8,286046999.1,N
1581777215.6,286046999.0,N
1581777235.5,286046998.9,N
1581777255.3,286047000.0,N
1581777275.1,286047001.0,N
1581777295.9,286046998.9,N
1581777315.7,286047000.9,N
1581777335.5,286046998.7,N
1581777355.4,286046999.3,N
1581777375.2,286046996.5,Y
1581777395.1,286047001.3,P
1581777396.0,286047001.3,N
1581777415.8,286047007.8,P
1581777435.6,286047013.9,Y
1581777455.5,286047014.0,P
1581777475.3,286047014.8,N
1581777495.2,286047024.1,P
1581777515.9,286047025.5,Y
1581777535.7,286047008.9,P
1581777555.6,286047001.8,N
1581777575.4,286046997.6,N
1581777595.2,286047000.3,N
1581777615.1,286047003.2,N
1581777616.0,286047003.2,N
1581777635.8,286046998.4,N
1581777655.7,286046993.4,N
1581777675.5,286046991.1,N
1581777695.3,286046987.3,N
1581777715.2,286046987.5,N
1581777735.0,286046985.7,N
1581777735.9,286046985.7,N
1581777755.7,286046984.2,N
1581777775.6,286046986.5,N
1581777795.4,286046986.3,N
1581777815.3,286046984.0,N
1581777835.1,286046983.9,N
1581777836.0,286046983.9,N
1581777855.8,286046984.4,N
1581777875.7,286046984.3,N
1581777895.5,286046982.2,N
1581777915.4,286046980.9,N
1581777935.2,286046980.5,N
1581777955.0,286046980.9,N
1581777955.9,286046980.9,N
1581777975.8,286046983.2,N
1581777995.6,286046982.0,N
1581778015.4,286046979.0,N
1581778035.3,286046981.5,N
1581778055.1,286046979.3,N
1581778075.9,286046981.7,N
1581778095.7,286046980.7,N
1581778115.5,286046981.0,N
1581778135.4,286046982.6,N
1581778155.2,286046984.7,N
1581778175.0,286046984.8,Y
1581778176.0,286046984.8,P
1581778195.8,286046996.5,P
1581778215.6,286046997.8,N
1581778235.5,286046996.7,N
1581778255.3,286046999.1,N
1581778275.1,286046999.0,N
1581778295.9,286046997.4,N
1581778315.7,286046999.4,N
1581778335.6,286046998.5,N
1581778355.4,286046998.6,N
1581778375.2,286046997.1,N
1581778395.1,286046995.8,N
1581778396.0,286046995.8,N
1581778415.8,286046994.3,N
1581778435.6,286046994.6,N
1581778455.5,286046995.9,N
1581778475.3,286046995.4,N
1581778495.2,286046995.6,N
1581778515.9,286046995.9,N
1581778535.7,286046991.8,N
1581778555.6,286046993.0,N
1581778575.4,286046990.3,N
1581778595.2,286046992.4,N
1581778615.1,286046990.7,N
1581778616.0,286046990.7,N
1581778635.8,286046988.8,N
1581778655.7,286046987.1,Y
1581778675.5,286046992.0,P
1581778695.3,286046994.5,P
1581778715.2,286046986.3,P
1581778735.0,286046988.9,Y
1581778735.9,286046988.9,P
1581778755.8,286046998.9,N
1581778775.6,286046999.0,N
1581778795.4,286046997.2,N
